This demonstration page uses our WeatherBlox Daily Observations layout. Learn more.

Left ArrowRight Arrow

41.55636, -103.73856

Hourly Observations for October 17, 2015

Temp ( °F °C ) Dew Point ( °F °C ) Humidity (%) Winds ( mph kmh ) Pressure ( in mb ) Visibility ( mi km ) Precip ( " mm )
12:53 am 00:53 Clear 41 5 30 -1.1 65 65 E 9 15 30.17 1022 10 16.0934 0 0
1:53 am 01:53 Clear 39 3.9 29 -1.7 67 67 ESE 7 11 30.17 1022 10 16.0934 0 0
2:53 am 02:53 Clear 36 2.2 29 -1.7 76 76 ESE 5 7 30.17 1022 10 16.0934 0 0
3:53 am 03:53 Clear 37 2.8 29 -1.7 73 73 Calm 30.17 1022 10 16.0934 0 0
4:53 am 04:53 Clear 37 2.8 29 -1.7 73 73 Calm 30.17 1022 10 16.0934 0 0
5:53 am 05:53 Clear 35 1.7 28 -2.2 76 76 Calm 30.21 1023 10 16.0934 0 0
6:53 am 06:53 Clear 34 1.1 28 -2.2 79 79 ENE 3 6 30.24 1024 10 16.0934 0 0
7:53 am 07:53 Sunny 37 2.8 30 -1.1 76 76 Calm 30.25 1024 10 16.0934 0 0
8:53 am 08:53 Sunny 42 5.6 31 -0.6 65 65 ESE 7 11 30.26 1025 10 16.0934 0 0
9:53 am 09:53 Sunny 48 8.9 31 -0.6 52 52 E 3 6 30.24 1024 10 16.0934 0 0
10:53 am 10:53 Sunny 53 11.7 32 0 45 45 Calm 30.22 1023 10 16.0934 0 0
11:53 am 11:53 Sunny 58 14.4 33 0.6 39 39 ESE 5 7 30.18 1022 10 16.0934 0 0
12:53 pm 12:53 Sunny 64 17.8 36 2.2 35 35 SE 7 11 30.14 1021 10 16.0934 0 0
1:53 pm 13:53 Sunny 68 20 37 2.8 32 32 SE 10 17 30.1 1019 10 16.0934 0 0
2:53 pm 14:53 Sunny 71 21.7 37 2.8 29 29 ESE 12 19 30.07 1018 10 16.0934 0 0
3:53 pm 15:53 Sunny 76 24.4 36 2.2 23 23 ESE 14 22 30.03 1017 10 16.0934 0 0
4:53 pm 16:53 Sunny 74 23.3 37 2.8 26 26 SE 15 24 30.03 1017 10 16.0934 0 0
5:53 pm 17:53 Sunny 68 20 38 3.3 33 33 ESE 15 24 30.05 1018 10 16.0934 0 0
6:53 pm 18:53 Clear 63 17.2 39 3.9 41 41 ESE 18 30 30.07 1018 10 16.0934 0 0
7:53 pm 19:53 Clear 60 15.6 38 3.3 44 44 SE 17 28 30.09 1019 10 16.0934 0 0
8:53 pm 20:53 Clear 54 12.2 38 3.3 55 55 ESE 10 17 30.11 1020 10 16.0934 0 0
9:53 pm 21:53 Clear 53 11.7 38 3.3 57 57 ESE 12 19 30.09 1019 10 16.0934 0 0
10:53 pm 22:53 Clear 51 10.6 37 2.8 59 59 ESE 10 17 30.08 1019 10 16.0934 0 0
11:53 pm 23:53 Clear 46 7.8 36 2.2 68 68 ESE 9 15 30.06 1018 10 16.0934 0 0

Powered by AerisWeather